Time,TemperatureF,DewpointF,PressureIn,WindDirection,WindDirectionDegrees,WindSpeedMPH,WindSpeedGustMPH,Humidity,HourlyPrecipIn,Conditions,Clouds,dailyrainin,SoftwareType,DateUTC
2013-03-31 00:00:00,62.0,0.0,30.00,SSE,160,7.0,15.0,41,-99.99,,,-99.99,,2013-03-31 07:00:00,
2013-03-31 00:08:00,62.0,0.0,30.00,SSE,150,6.0,13.0,42,-99.99,,,-99.99,,2013-03-31 07:08:00,
2013-03-31 00:16:00,61.0,0.0,30.01,SE,141,5.0,12.0,41,-99.99,,,-99.99,,2013-03-31 07:16:00,
2013-03-31 00:24:00,61.0,0.0,30.01,SSE,160,5.0,10.0,43,-99.99,,,-99.99,,2013-03-31 07:24:00,
2013-03-31 00:32:00,61.0,0.0,30.00,SSE,157,7.0,12.0,43,-99.99,,,-99.99,,2013-03-31 07:32:00,
2013-03-31 00:40:00,61.0,0.0,30.00,SSE,154,8.0,14.0,43,-99.99,,,-99.99,,2013-03-31 07:40:00,
2013-03-31 00:48:00,61.0,0.0,30.00,SSE,147,9.0,14.0,43,-99.99,,,-99.99,,2013-03-31 07:48:00,
2013-03-31 00:56:00,61.0,0.0,30.00,South,186,12.0,15.0,43,-99.99,,,-99.99,,2013-03-31 07:56:00,
2013-03-31 01:04:00,61.0,0.0,30.00,SSE,167,12.0,15.0,42,-99.99,,,-99.99,,2013-03-31 08:04:00,
2013-03-31 01:12:00,61.0,0.0,30.00,SSE,160,7.0,15.0,43,-99.99,,,-99.99,,2013-03-31 08:12:00,
2013-03-31 01:20:00,61.0,0.0,30.00,South,186,7.0,13.0,42,-99.99,,,-99.99,,2013-03-31 08:20:00,
2013-03-31 01:28:00,60.0,0.0,30.01,SSE,158,7.0,12.0,44,-99.99,,,-99.99,,2013-03-31 08:28:00,
2013-03-31 01:36:00,60.0,0.0,30.01,East,99,3.0,12.0,42,-99.99,,,-99.99,,2013-03-31 08:36:00,
2013-03-31 01:44:00,60.0,0.0,30.01,SSE,153,6.0,10.0,45,-99.99,,,-99.99,,2013-03-31 08:44:00,
2013-03-31 01:52:00,60.0,0.0,30.01,SSE,152,7.0,13.0,44,-99.99,,,-99.99,,2013-03-31 08:52:00,
2013-03-31 02:00:00,60.0,0.0,30.00,ESE,117,13.0,15.0,43,-99.99,,,-99.99,,2013-03-31 09:00:00,
2013-03-31 02:08:00,60.0,0.0,30.00,NE,53,6.0,15.0,43,-99.99,,,-99.99,,2013-03-31 09:08:00,
2013-03-31 02:16:00,60.0,0.0,30.01,East,95,1.0,8.0,43,-99.99,,,-99.99,,2013-03-31 09:16:00,
2013-03-31 02:24:00,59.0,0.0,30.01,SE,131,7.0,7.0,46,-99.99,,,-99.99,,2013-03-31 09:24:00,
2013-03-31 02:32:00,59.0,0.0,30.01,SE,129,9.0,12.0,44,-99.99,,,-99.99,,2013-03-31 09:32:00,
2013-03-31 02:40:00,59.0,0.0,30.01,SSE,153,2.0,10.0,46,-99.99,,,-99.99,,2013-03-31 09:40:00,
2013-03-31 02:48:00,59.0,0.0,30.01,SSE,163,3.0,10.0,46,-99.99,,,-99.99,,2013-03-31 09:48:00,
2013-03-31 02:56:00,58.0,0.0,30.01,SE,146,6.0,10.0,47,-99.99,,,-99.99,,2013-03-31 09:56:00,
2013-03-31 03:04:00,59.0,0.0,30.01,SSE,160,3.0,8.0,46,-99.99,,,-99.99,,2013-03-31 10:04:00,
2013-03-31 03:12:00,59.0,0.0,30.00,SSE,154,5.0,7.0,46,-99.99,,,-99.99,,2013-03-31 10:12:00,
2013-03-31 03:20:00,60.0,0.0,30.00,South,178,8.0,10.0,45,-99.99,,,-99.99,,2013-03-31 10:20:00,
2013-03-31 03:28:00,60.0,0.0,30.00,South,175,7.0,10.0,46,-99.99,,,-99.99,,2013-03-31 10:28:00,
2013-03-31 03:36:00,59.0,0.0,30.00,SSE,158,5.0,10.0,45,-99.99,,,-99.99,,2013-03-31 10:36:00,
2013-03-31 03:44:00,59.0,0.0,30.00,SSE,157,7.0,8.0,46,-99.99,,,-99.99,,2013-03-31 10:44:00,
2013-03-31 03:52:00,59.0,0.0,30.00,SSE,159,5.0,8.0,46,-99.99,,,-99.99,,2013-03-31 10:52:00,
2013-03-31 04:00:00,59.0,0.0,30.00,SE,139,7.0,7.0,48,-99.99,,,-99.99,,2013-03-31 11:00:00,
2013-03-31 04:08:00,58.0,0.0,29.99,SE,137,7.0,10.0,48,-99.99,,,-99.99,,2013-03-31 11:08:00,
2013-03-31 04:16:00,58.0,0.0,30.00,ESE,110,2.0,10.0,48,-99.99,,,-99.99,,2013-03-31 11:16:00,
2013-03-31 04:24:00,58.0,0.0,29.99,SSE,164,5.0,10.0,49,-99.99,,,-99.99,,2013-03-31 11:24:00,
2013-03-31 04:32:00,58.0,0.0,29.99,SSE,165,8.0,13.0,49,-99.99,,,-99.99,,2013-03-31 11:32:00,
2013-03-31 04:40:00,57.0,0.0,29.99,SSE,151,8.0,12.0,49,-99.99,,,-99.99,,2013-03-31 11:40:00,
2013-03-31 04:48:00,57.0,0.0,29.99,SSE,161,7.0,12.0,52,-99.99,,,-99.99,,2013-03-31 11:48:00,
2013-03-31 04:56:00,57.0,0.0,29.99,SSE,158,5.0,10.0,49,-99.99,,,-99.99,,2013-03-31 11:56:00,
2013-03-31 05:04:00,56.0,0.0,29.99,SSE,157,7.0,9.0,52,-99.99,,,-99.99,,2013-03-31 12:04:00,
2013-03-31 05:12:00,56.0,0.0,30.00,SSE,165,5.0,9.0,50,-99.99,,,-99.99,,2013-03-31 12:12:00,
2013-03-31 05:20:00,56.0,0.0,29.99,SW,225,2.0,9.0,50,-99.99,,,-99.99,,2013-03-31 12:20:00,
2013-03-31 05:28:00,56.0,0.0,29.99,SSE,165,5.0,9.0,50,-99.99,,,-99.99,,2013-03-31 12:28:00,
2013-03-31 05:36:00,56.0,0.0,30.00,South,186,0.0,9.0,50,-99.99,,,-99.99,,2013-03-31 12:36:00,
2013-03-31 05:44:00,56.0,0.0,30.00,NE,41,1.0,6.0,51,-99.99,,,-99.99,,2013-03-31 12:44:00,
2013-03-31 05:52:00,55.0,0.0,30.00,ESE,116,1.0,5.0,52,-99.99,,,-99.99,,2013-03-31 12:52:00,
2013-03-31 06:00:00,55.0,0.0,30.00,SSE,167,2.0,3.0,52,-99.99,,,-99.99,,2013-03-31 13:00:00,
2013-03-31 06:08:00,55.0,0.0,30.00,East,100,0.0,5.0,53,-99.99,,,-99.99,,2013-03-31 13:08:00,
2013-03-31 06:16:00,54.0,0.0,30.00,SSE,154,5.0,5.0,53,-99.99,,,-99.99,,2013-03-31 13:16:00,
2013-03-31 06:24:00,54.0,0.0,30.00,South,173,6.0,7.0,54,-99.99,,,-99.99,,2013-03-31 13:24:00,
2013-03-31 06:32:00,54.0,0.0,30.00,SSE,165,8.0,12.0,55,-99.99,,,-99.99,,2013-03-31 13:32:00,
2013-03-31 06:40:00,54.0,0.0,30.00,South,170,7.0,13.0,55,-99.99,,,-99.99,,2013-03-31 13:40:00,
2013-03-31 06:48:00,54.0,0.0,30.00,South,180,12.0,14.0,56,-99.99,,,-99.99,,2013-03-31 13:48:00,
2013-03-31 06:56:00,53.0,0.0,30.01,SSW,203,6.0,14.0,56,-99.99,,,-99.99,,2013-03-31 13:56:00,
2013-03-31 07:04:00,52.0,0.0,30.01,SSE,156,5.0,6.0,54,-99.99,,,-99.99,,2013-03-31 14:04:00,
2013-03-31 07:12:00,52.0,0.0,30.01,SE,141,2.0,6.0,55,-99.99,,,-99.99,,2013-03-31 14:12:00,
2013-03-31 07:20:00,53.0,0.0,30.01,NE,42,2.0,5.0,55,-99.99,,,-99.99,,2013-03-31 14:20:00,
2013-03-31 07:28:00,54.0,0.0,30.01,ESE,109,2.0,5.0,53,-99.99,,,-99.99,,2013-03-31 14:28:00,
2013-03-31 07:36:00,54.0,0.0,30.01,SE,125,3.0,7.0,53,-99.99,,,-99.99,,2013-03-31 14:36:00,
2013-03-31 07:44:00,54.0,0.0,30.01,East,92,0.0,5.0,53,-99.99,,,-99.99,,2013-03-31 14:44:00,
2013-03-31 07:52:00,55.0,0.0,30.01,SSE,159,2.0,5.0,54,-99.99,,,-99.99,,2013-03-31 14:52:00,
2013-03-31 08:00:00,55.0,0.0,30.01,SE,145,0.0,5.0,54,-99.99,,,-99.99,,2013-03-31 15:00:00,
2013-03-31 08:08:00,56.0,0.0,30.01,SE,129,3.0,6.0,53,-99.99,,,-99.99,,2013-03-31 15:08:00,
2013-03-31 08:16:00,56.0,0.0,30.01,ESE,108,2.0,7.0,52,-99.99,,,-99.99,,2013-03-31 15:16:00,
2013-03-31 08:24:00,57.0,0.0,30.01,NE,40,2.0,7.0,52,-99.99,,,-99.99,,2013-03-31 15:24:00,
2013-03-31 08:32:00,58.0,0.0,30.02,North,7,2.0,5.0,50,-99.99,,,-99.99,,2013-03-31 15:32:00,
2013-03-31 08:40:00,58.0,0.0,30.01,ENE,60,1.0,6.0,53,-99.99,,,-99.99,,2013-03-31 15:40:00,
2013-03-31 08:48:00,58.0,0.0,30.01,East,86,2.0,8.0,50,-99.99,,,-99.99,,2013-03-31 15:48:00,
2013-03-31 08:56:00,60.0,0.0,30.01,SE,129,5.0,9.0,51,-99.99,,,-99.99,,2013-03-31 15:56:00,
2013-03-31 09:04:00,60.0,0.0,30.01,SE,145,3.0,12.0,49,-99.99,,,-99.99,,2013-03-31 16:04:00,
2013-03-31 09:12:00,61.0,0.0,30.01,South,179,6.0,12.0,46,-99.99,,,-99.99,,2013-03-31 16:12:00,
2013-03-31 09:20:00,60.0,0.0,30.01,NNW,338,3.0,9.0,46,-99.99,,,-99.99,,2013-03-31 16:20:00,
2013-03-31 09:28:00,62.0,0.0,30.01,SSW,200,3.0,5.0,44,-99.99,,,-99.99,,2013-03-31 16:28:00,
2013-03-31 09:36:00,62.0,0.0,30.01,SW,223,8.0,13.0,45,-99.99,,,-99.99,,2013-03-31 16:36:00,
2013-03-31 09:44:00,62.0,0.0,30.01,South,181,7.0,9.0,43,-99.99,,,-99.99,,2013-03-31 16:44:00,
2013-03-31 09:52:00,63.0,0.0,30.01,SSW,198,5.0,12.0,45,-99.99,,,-99.99,,2013-03-31 16:52:00,
2013-03-31 10:00:00,65.0,0.0,30.01,South,191,1.0,10.0,40,-99.99,,,-99.99,,2013-03-31 17:00:00,
2013-03-31 10:08:00,66.0,0.0,30.01,SSW,198,1.0,10.0,39,-99.99,,,-99.99,,2013-03-31 17:08:00,
2013-03-31 10:16:00,66.0,0.0,30.01,SSE,149,3.0,9.0,37,-99.99,,,-99.99,,2013-03-31 17:16:00,
2013-03-31 10:24:00,66.0,0.0,30.01,SW,219,12.0,12.0,36,-99.99,,,-99.99,,2013-03-31 17:24:00,
2013-03-31 10:32:00,67.0,0.0,30.02,SSW,210,13.0,16.0,37,-99.99,,,-99.99,,2013-03-31 17:32:00,
2013-03-31 10:40:00,67.0,0.0,30.01,South,184,3.0,16.0,34,-99.99,,,-99.99,,2013-03-31 17:40:00,
2013-03-31 10:48:00,67.0,0.0,30.01,South,179,16.0,21.0,31,-99.99,,,-99.99,,2013-03-31 17:48:00,
2013-03-31 10:56:00,69.0,0.0,30.01,SE,141,0.0,20.0,31,-99.99,,,-99.99,,2013-03-31 17:56:00,
2013-03-31 11:04:00,70.0,0.0,30.01,SSE,149,12.0,14.0,29,-99.99,,,-99.99,,2013-03-31 18:04:00,
2013-03-31 11:12:00,70.0,0.0,30.01,South,187,12.0,16.0,28,-99.99,,,-99.99,,2013-03-31 18:12:00,
2013-03-31 11:20:00,71.0,0.0,30.00,SE,127,1.0,16.0,27,-99.99,,,-99.99,,2013-03-31 18:20:00,
2013-03-31 11:28:00,70.0,0.0,30.00,SSE,152,8.0,17.0,27,-99.99,,,-99.99,,2013-03-31 18:28:00,
2013-03-31 11:36:00,70.0,0.0,30.00,WSW,256,0.0,22.0,28,-99.99,,,-99.99,,2013-03-31 18:36:00,
2013-03-31 11:44:00,73.0,0.0,30.00,South,174,2.0,10.0,25,-99.99,,,-99.99,,2013-03-31 18:44:00,
2013-03-31 11:52:00,74.0,0.0,29.99,SE,134,7.0,12.0,25,-99.99,,,-99.99,,2013-03-31 18:52:00,
2013-03-31 12:00:00,74.0,0.0,29.99,SSW,213,10.0,15.0,24,-99.99,,,-99.99,,2013-03-31 19:00:00,
2013-03-31 12:08:00,72.0,0.0,29.99,South,178,0.0,18.0,25,-99.99,,,-99.99,,2013-03-31 19:08:00,
2013-03-31 12:16:00,69.0,0.0,29.98,SSE,164,10.0,16.0,25,-99.99,,,-99.99,,2013-03-31 19:16:00,
2013-03-31 12:24:00,70.0,0.0,29.98,SW,217,12.0,18.0,25,-99.99,,,-99.99,,2013-03-31 19:24:00,
2013-03-31 12:32:00,72.0,0.0,29.98,South,179,20.0,25.0,25,-99.99,,,-99.99,,2013-03-31 19:32:00,
2013-03-31 12:40:00,71.0,0.0,29.98,South,174,15.0,25.0,26,-99.99,,,-99.99,,2013-03-31 19:40:00,
2013-03-31 12:48:00,71.0,0.0,29.98,SSW,210,10.0,24.0,24,-99.99,,,-99.99,,2013-03-31 19:48:00,
2013-03-31 12:56:00,73.0,0.0,29.97,South,184,12.0,22.0,23,-99.99,,,-99.99,,2013-03-31 19:56:00,
2013-03-31 13:04:00,73.0,0.0,29.96,SSE,167,14.0,21.0,23,-99.99,,,-99.99,,2013-03-31 20:04:00,
2013-03-31 13:12:00,72.0,0.0,29.96,SSW,211,17.0,24.0,24,-99.99,,,-99.99,,2013-03-31 20:12:00,
2013-03-31 13:20:00,72.0,0.0,29.95,WSW,237,20.0,28.0,26,-99.99,,,-99.99,,2013-03-31 20:20:00,
2013-03-31 13:28:00,72.0,0.0,29.95,SW,219,17.0,31.0,24,-99.99,,,-99.99,,2013-03-31 20:28:00,
2013-03-31 13:36:00,73.0,0.0,29.95,SW,227,16.0,35.0,26,-99.99,,,-99.99,,2013-03-31 20:36:00,
2013-03-31 13:44:00,73.0,0.0,29.94,WSW,239,21.0,31.0,25,-99.99,,,-99.99,,2013-03-31 20:44:00,
2013-03-31 13:52:00,73.0,0.0,29.94,WSW,254,28.0,32.0,24,-99.99,,,-99.99,,2013-03-31 20:52:00,
2013-03-31 14:00:00,72.0,0.0,29.93,SSW,213,28.0,37.0,26,-99.99,,,-99.99,,2013-03-31 21:00:00,
2013-03-31 14:08:00,72.0,0.0,29.92,SW,216,23.0,35.0,25,-99.99,,,-99.99,,2013-03-31 21:08:00,
2013-03-31 14:16:00,73.0,0.0,29.93,SW,228,26.0,37.0,25,-99.99,,,-99.99,,2013-03-31 21:16:00,
2013-03-31 14:24:00,72.0,0.0,29.93,WSW,243,17.0,36.0,24,-99.99,,,-99.99,,2013-03-31 21:24:00,
2013-03-31 14:32:00,72.0,0.0,29.92,SW,217,29.0,41.0,23,-99.99,,,-99.99,,2013-03-31 21:32:00,
2013-03-31 14:40:00,72.0,0.0,29.94,SW,229,25.0,41.0,25,-99.99,,,-99.99,,2013-03-31 21:40:00,
2013-03-31 14:48:00,72.0,0.0,29.93,SW,231,33.0,38.0,26,-99.99,,,-99.99,,2013-03-31 21:48:00,
2013-03-31 14:56:00,72.0,0.0,29.92,SW,218,25.0,40.0,24,-99.99,,,-99.99,,2013-03-31 21:56:00,
2013-03-31 15:04:00,72.0,0.0,29.92,SW,223,26.0,39.0,23,-99.99,,,-99.99,,2013-03-31 22:04:00,
2013-03-31 15:12:00,72.0,0.0,29.91,SSW,198,28.0,36.0,24,-99.99,,,-99.99,,2013-03-31 22:12:00,
2013-03-31 15:20:00,70.0,0.0,29.92,WSW,242,21.0,35.0,24,-99.99,,,-99.99,,2013-03-31 22:20:00,
2013-03-31 15:28:00,70.0,0.0,29.91,SW,215,24.0,30.0,26,-99.99,,,-99.99,,2013-03-31 22:28:00,
2013-03-31 15:36:00,70.0,0.0,29.89,SSW,209,25.0,37.0,25,-99.99,,,-99.99,,2013-03-31 22:36:00,
2013-03-31 15:44:00,70.0,0.0,29.91,SSW,210,29.0,38.0,28,-99.99,,,-99.99,,2013-03-31 22:44:00,
2013-03-31 15:52:00,70.0,0.0,29.91,WSW,245,24.0,33.0,28,-99.99,,,-99.99,,2013-03-31 22:52:00,
2013-03-31 16:00:00,70.0,0.0,29.91,SSW,212,20.0,32.0,28,-99.99,,,-99.99,,2013-03-31 23:00:00,
2013-03-31 16:08:00,69.0,0.0,29.91,SSW,202,16.0,32.0,28,-99.99,,,-99.99,,2013-03-31 23:08:00,
2013-03-31 16:16:00,69.0,0.0,29.92,SW,226,20.0,30.0,29,-99.99,,,-99.99,,2013-03-31 23:16:00,
2013-03-31 16:24:00,69.0,0.0,29.91,WSW,239,18.0,30.0,28,-99.99,,,-99.99,,2013-03-31 23:24:00,
2013-03-31 16:32:00,70.0,0.0,29.90,SSW,198,18.0,29.0,28,-99.99,,,-99.99,,2013-03-31 23:32:00,
2013-03-31 16:40:00,71.0,0.0,29.90,SW,229,20.0,37.0,28,-99.99,,,-99.99,,2013-03-31 23:40:00,
2013-03-31 16:48:00,70.0,0.0,29.91,SW,227,16.0,32.0,29,-99.99,,,-99.99,,2013-03-31 23:48:00,
2013-03-31 16:56:00,70.0,0.0,29.91,SW,234,22.0,29.0,30,-99.99,,,-99.99,,2013-03-31 23:56:00,
2013-03-31 17:04:00,69.0,0.0,29.90,West,267,16.0,30.0,30,-99.99,,,-99.99,,2013-04-01 00:04:00,
2013-03-31 17:12:00,69.0,0.0,29.91,WSW,242,25.0,30.0,31,-99.99,,,-99.99,,2013-04-01 00:12:00,
2013-03-31 17:20:00,68.0,0.0,29.91,WSW,240,21.0,30.0,33,-99.99,,,-99.99,,2013-04-01 00:20:00,
2013-03-31 17:28:00,68.0,0.0,29.91,WSW,248,16.0,28.0,32,-99.99,,,-99.99,,2013-04-01 00:28:00,
2013-03-31 17:36:00,68.0,0.0,29.91,WSW,240,16.0,28.0,33,-99.99,,,-99.99,,2013-04-01 00:36:00,
2013-03-31 17:44:00,68.0,0.0,29.91,SW,236,18.0,25.0,34,-99.99,,,-99.99,,2013-04-01 00:44:00,
2013-03-31 17:52:00,66.0,0.0,29.90,SW,226,25.0,26.0,35,-99.99,,,-99.99,,2013-04-01 00:52:00,
2013-03-31 18:00:00,66.0,0.0,29.91,SSW,213,23.0,26.0,37,-99.99,,,-99.99,,2013-04-01 01:00:00,
2013-03-31 18:08:00,66.0,0.0,29.91,SW,221,17.0,26.0,37,-99.99,,,-99.99,,2013-04-01 01:08:00,
2013-03-31 18:16:00,66.0,0.0,29.92,SW,233,23.0,28.0,38,-99.99,,,-99.99,,2013-04-01 01:16:00,
2013-03-31 18:24:00,65.0,0.0,29.92,WSW,247,24.0,28.0,39,-99.99,,,-99.99,,2013-04-01 01:24:00,
2013-03-31 18:32:00,64.0,0.0,29.92,WSW,240,17.0,28.0,39,-99.99,,,-99.99,,2013-04-01 01:32:00,
2013-03-31 18:40:00,64.0,0.0,29.91,SW,230,18.0,28.0,42,-99.99,,,-99.99,,2013-04-01 01:40:00,
2013-03-31 18:48:00,63.0,0.0,29.92,WSW,248,21.0,28.0,43,-99.99,,,-99.99,,2013-04-01 01:48:00,
2013-03-31 18:56:00,63.0,0.0,29.92,WSW,241,16.0,24.0,42,-99.99,,,-99.99,,2013-04-01 01:56:00,
2013-03-31 19:04:00,62.0,0.0,29.92,SW,227,25.0,26.0,44,-99.99,,,-99.99,,2013-04-01 02:04:00,
2013-03-31 19:12:00,62.0,0.0,29.92,SW,218,17.0,26.0,46,-99.99,,,-99.99,,2013-04-01 02:12:00,
2013-03-31 19:20:00,62.0,0.0,29.93,SW,230,12.0,23.0,43,-99.99,,,-99.99,,2013-04-01 02:20:00,
2013-03-31 19:28:00,61.0,0.0,29.93,WSW,248,20.0,23.0,45,-99.99,,,-99.99,,2013-04-01 02:28:00,
2013-03-31 19:36:00,61.0,0.0,29.92,WSW,241,20.0,25.0,45,-99.99,,,-99.99,,2013-04-01 02:36:00,
2013-03-31 19:44:00,61.0,0.0,29.93,WSW,245,20.0,26.0,46,-99.99,,,-99.99,,2013-04-01 02:44:00,
2013-03-31 19:52:00,60.0,0.0,29.93,SW,233,18.0,29.0,47,-99.99,,,-99.99,,2013-04-01 02:52:00,
2013-03-31 20:00:00,60.0,0.0,29.94,SW,230,20.0,26.0,48,-99.99,,,-99.99,,2013-04-01 03:00:00,
2013-03-31 20:08:00,60.0,0.0,29.94,SW,230,18.0,24.0,47,-99.99,,,-99.99,,2013-04-01 03:08:00,
2013-03-31 20:16:00,60.0,0.0,29.94,SW,228,18.0,23.0,46,-99.99,,,-99.99,,2013-04-01 03:16:00,
2013-03-31 20:24:00,60.0,0.0,29.94,WSW,241,17.0,23.0,47,-99.99,,,-99.99,,2013-04-01 03:24:00,
2013-03-31 20:32:00,60.0,0.0,29.94,SW,218,16.0,24.0,48,-99.99,,,-99.99,,2013-04-01 03:32:00,
2013-03-31 20:40:00,59.0,0.0,29.94,SW,225,15.0,22.0,48,-99.99,,,-99.99,,2013-04-01 03:40:00,
2013-03-31 20:48:00,59.0,0.0,29.94,SW,214,15.0,21.0,49,-99.99,,,-99.99,,2013-04-01 03:48:00,
2013-03-31 20:56:00,59.0,0.0,29.95,SW,227,16.0,20.0,49,-99.99,,,-99.99,,2013-04-01 03:56:00,
2013-03-31 21:00:00,58.0,0.0,29.95,SW,231,15.0,20.0,50,-99.99,,,-99.99,,2013-04-01 04:00:00,
2013-03-31 21:04:00,58.0,0.0,29.95,SW,234,12.0,18.0,50,-99.99,,,-99.99,,2013-04-01 04:04:00,
2013-03-31 21:08:00,58.0,0.0,29.95,SW,230,14.0,17.0,51,-99.99,,,-99.99,,2013-04-01 04:08:00,
2013-03-31 21:12:00,58.0,0.0,29.95,WSW,244,14.0,18.0,51,-99.99,,,-99.99,,2013-04-01 04:12:00,
2013-03-31 21:16:00,58.0,0.0,29.95,WSW,241,13.0,20.0,50,-99.99,,,-99.99,,2013-04-01 04:16:00,
2013-03-31 21:24:00,58.0,0.0,29.95,SW,236,13.0,20.0,53,-99.99,,,-99.99,,2013-04-01 04:24:00,
2013-03-31 21:32:00,58.0,0.0,29.95,SW,223,10.0,15.0,48,-99.99,,,-99.99,,2013-04-01 04:32:00,
2013-03-31 21:40:00,58.0,0.0,29.94,WSW,239,12.0,14.0,47,-99.99,,,-99.99,,2013-04-01 04:40:00,
2013-03-31 21:48:00,58.0,0.0,29.94,SW,218,14.0,15.0,46,-99.99,,,-99.99,,2013-04-01 04:48:00,
2013-03-31 21:56:00,57.0,0.0,29.94,SSW,197,12.0,15.0,50,-99.99,,,-99.99,,2013-04-01 04:56:00,
2013-03-31 22:04:00,58.0,0.0,29.95,WSW,255,16.0,18.0,45,-99.99,,,-99.99,,2013-04-01 05:04:00,
2013-03-31 22:12:00,57.0,0.0,29.95,WSW,254,15.0,21.0,48,-99.99,,,-99.99,,2013-04-01 05:12:00,
2013-03-31 22:20:00,58.0,0.0,29.94,WSW,250,18.0,21.0,46,-99.99,,,-99.99,,2013-04-01 05:20:00,
2013-03-31 22:28:00,57.0,0.0,29.94,West,270,21.0,23.0,49,-99.99,,,-99.99,,2013-04-01 05:28:00,
2013-03-31 22:36:00,57.0,0.0,29.94,West,276,10.0,25.0,49,-99.99,,,-99.99,,2013-04-01 05:36:00,
2013-03-31 22:44:00,57.0,0.0,29.95,WSW,251,16.0,23.0,47,-99.99,,,-99.99,,2013-04-01 05:44:00,
2013-03-31 22:52:00,57.0,0.0,29.95,West,265,14.0,23.0,48,-99.99,,,-99.99,,2013-04-01 05:52:00,
2013-03-31 23:00:00,57.0,0.0,29.95,WNW,302,9.0,15.0,45,-99.99,,,-99.99,,2013-04-01 06:00:00,
2013-03-31 23:08:00,56.0,0.0,29.95,North,361,2.0,15.0,46,-99.99,,,-99.99,,2013-04-01 06:08:00,
2013-03-31 23:16:00,56.0,0.0,29.96,WNW,285,6.0,7.0,46,-99.99,,,-99.99,,2013-04-01 06:16:00,
2013-03-31 23:24:00,56.0,0.0,29.95,West,280,7.0,12.0,48,-99.99,,,-99.99,,2013-04-01 06:24:00,
2013-03-31 23:32:00,56.0,0.0,29.95,WNW,300,5.0,12.0,47,-99.99,,,-99.99,,2013-04-01 06:32:00,
2013-03-31 23:40:00,56.0,0.0,29.95,NW,318,0.0,7.0,47,-99.99,,,-99.99,,2013-04-01 06:40:00,
2013-03-31 23:48:00,55.0,0.0,29.95,NNE,31,0.0,7.0,48,-99.99,,,-99.99,,2013-04-01 06:48:00,
2013-03-31 23:56:00,56.0,0.0,29.95,SW,233,2.0,7.0,45,-99.99,,,-99.99,,2013-04-01 06:56:00,